User: anonymous   Login
Location: Unspecified
(0.0000°N, 0.0000°E)
Time: 19:38:49
(UTC+00:00)
Language:

Tiros 6 - Orbit

View from above orbital plane
View from above orbital plane
View from above satellite
View from above satellite

Ground track
Ground track

The orbit data is extracted from the following two-line orbital elements,

1   397U 62047A   19145.95158840 -.00000140 +00000-0 +81540-5 0  9997
2   397 058.3069 060.2039 0008858 155.9660 204.1799 14.88377336027790
Epoch (UTC): 25 May 2019 22:50:17
Eccentricity: 0.0008858
inclination: 58.3069°
perigee height: 597 km
apogee height: 609 km
right ascension of ascending node: 60.2039°
argument of perigee: 155.9660°
revolutions per day: 14.88377336
mean anomaly at epoch: 204.1799°
orbit number at epoch: 2779

The dashed part of the orbit path shows where the satellite is in the earth's shadow,  

DLR